This is the latest recevied weather packets stored in our database for station/object SQ6XL-13. If no packets are shown the sender has not sent any weather packets the latest 1 day(s).
| Time | Temp. | Humidity | Pressure | Rain* | Wind** | Luminosity | Snow |
|---|---|---|---|---|---|---|---|
| 1778007272 | 17.22° C | 80% | 1006.6 hPa | 0 mm | - | - | - |
| 1778006677 | 17.22° C | 79% | 1006.6 hPa | 0 mm | - | - | - |
| 1778006082 | 17.78° C | 77% | 1006.7 hPa | 0 mm | - | - | - |
| 1778005557 | 17.78° C | 77% | 1006.7 hPa | 0 mm | - | - | - |
| 1778005032 | 18.33° C | 74% | 1006.6 hPa | 0 mm | - | - | - |
| 1778004547 | 18.89° C | 71% | 1006.6 hPa | 0 mm | - | - | - |
| 1778003947 | 19.44° C | 62% | 1006.6 hPa | 0 mm | - | - | - |
| 1778003412 | 19.44° C | 59% | 1006.5 hPa | 0 mm | - | - | - |
| 1778002882 | 20° C | 59% | 1006.3 hPa | 0 mm | - | - | - |
| 1778002307 | 20° C | 57% | 1006.2 hPa | 0 mm | - | - | - |
| 1778001807 | 20.56° C | 56% | 1006.2 hPa | 0 mm | - | - | - |
| 1778001322 | 20.56° C | 55% | 1006.2 hPa | 0 mm | - | - | - |
| 1778000742 | 20.56° C | 55% | 1006.3 hPa | 0 mm | - | - | - |
| 1778000237 | 21.11° C | 56% | 1006.2 hPa | 0 mm | - | - | - |
| 1777999752 | 20.56° C | 57% | 1006.1 hPa | 0 mm | - | - | - |
| 1777999177 | 20.56° C | 58% | 1006 hPa | 0 mm | - | - | - |
| 1777998582 | 21.11° C | 55% | 1006.1 hPa | 0 mm | - | - | - |
| 1777998057 | 21.67° C | 54% | 1006 hPa | 0 mm | - | - | - |
| 1777997487 | 21.67° C | 53% | 1006 hPa | 0 mm | - | - | - |
| 1777996999 | 22.22° C | 53% | 1006.2 hPa | 0 mm | - | - | - |
| 1777996427 | 22.22° C | 51% | 1006.2 hPa | 0 mm | - | - | - |
| 1777995907 | 22.78° C | 51% | 1006.2 hPa | 0 mm | - | - | - |
| 1777995412 | 22.78° C | 49% | 1006.2 hPa | 0 mm | - | - | - |
| 1777994867 | 23.33° C | 46% | 1006.2 hPa | 0 mm | - | - | - |
| 1777994312 | 23.89° C | 42% | 1006.2 hPa | 0 mm | - | - | - |
* Rain latest hour (hover to see other rain measurements)
** Current wind speed in m/s (hover to see current wind gust speed)